EW2013 Weather Reports


time (UTC)temp
F
wind
direction
speed
knots
gust
knots
rain 1hr
in
rain 24hr
in
rain mn
in
humidity
%
barometer
mb
20260906220707 91 345 1.7 6.1 0.00 0.00 0.00 35 1017.2
20260906220206 91 355 1.7 6.1 0.00 0.00 0.00 34 1017.2
20260906215705 91 355 1.7 6.1 0.00 0.00 0.00 34 1017.3
20260906215206 91 61 1.7 6.1 0.00 0.00 0.00 34 1017.4
20260906214205 91 53 2.6 7.8 0.00 0.00 0.00 33 1017.4
20260906213706 91 336 2.6 7.8 0.00 0.00 0.00 34 1017.5
20260906213204 91 51 2.6 7.8 0.00 0.00 0.00 33 1017.5
20260906212710 91 293 2.6 6.1 0.00 0.00 0.00 33 1017.6
20260906212205 91 335 1.7 5.2 0.00 0.00 0.00 33 1017.7
20260906211706 91 315 0.9 5.2 0.00 0.00 0.00 33 1018.0
20260906211205 92 335 0.9 5.2 0.00 0.00 0.00 32 1018.1
20260906210206 91 13 1.7 7.8 0.00 0.00 0.00 33 1018.2
20260906205704 91 57 1.7 9.6 0.00 0.00 0.00 33 1018.2
20260906205205 90 34 2.6 9.6 0.00 0.00 0.00 34 1018.3
20260906204205 91 57 1.7 6.1 0.00 0.00 0.00 35 1018.3
20260906203705 91 17 1.7 6.1 0.00 0.00 0.00 36 1018.4
20260906203205 90 10 1.7 6.1 0.00 0.00 0.00 35 1018.6
20260906202705 90 298 0.9 5.2 0.00 0.00 0.00 35 1018.4
20260906202205 90 212 1.7 5.2 0.00 0.00 0.00 35 1018.7
20260906201707 90 19 1.7 7.8 0.00 0.00 0.00 37 1018.6
20260906200206 88 292 2.6 7.8 0.00 0.00 0.00 37 1018.8
20260906195704 89 328 1.7 7.8 0.00 0.00 0.00 36 1018.8
20260906195210 89 33 1.7 5.2 0.00 0.00 0.00 36 1018.9
20260906194704 89 59 0.9 6.1 0.00 0.00 0.00 39 1018.9
20260906194206 89 333 0.0 7.0 0.00 0.00 0.00 38 1018.9
20260906193204 87 33 2.6 7.0 0.00 0.00 0.00 37 1019.1
20260906192705 89 53 0.9 6.1 0.00 0.00 0.00 33 1019.1
20260906192205 88 44 0.9 7.0 0.00 0.00 0.00 38 1019.3
20260906191706 89 92 1.7 7.0 0.00 0.00 0.00 34 1019.3
20260906191205 88 78 1.7 7.0 0.00 0.00 0.00 35 1019.4
20260906190705 87 71 1.7 7.0 0.00 0.00 0.00 35 1019.4
20260906190204 87 87 2.6 5.2 0.00 0.00 0.00 37 1019.5
20260906185704 87 81 1.7 5.2 0.00 0.00 0.00 39 1019.6
20260906184705 86 15 1.7 7.0 0.00 0.00 0.00 41 1020.0
20260906184205 85 22 1.7 4.3 0.00 0.00 0.00 45 1020.1
20260906183205 85 46 0.9 4.3 0.00 0.00 0.00 46 1020.3
20260906182704 84 51 0.9 4.3 0.00 0.00 0.00 46 1020.3
20260906182204 85 287 0.9 4.3 0.00 0.00 0.00 46 1020.3
20260906181705 84 19 0.9 4.3 0.00 0.00 0.00 46 1020.5
20260906181205 84 342 0.9 4.3 0.00 0.00 0.00 52 1020.5
20260906180705 83 58 0.9 4.3 0.00 0.00 0.00 52 1020.7
20260906180204 83 26 0.9 4.3 0.00 0.00 0.00 53 1020.8
20260906175704 82 50 1.7 4.3 0.00 0.00 0.00 55 1020.9
20260906175204 81 47 0.9 4.3 0.00 0.00 0.00 54 1021.1
20260906174205 80 47 1.7 4.3 0.00 0.00 0.00 55 1021.4
20260906173705 80 53 1.7 4.3 0.00 0.00 0.00 56 1021.5
20260906173205 79 53 1.7 6.1 0.00 0.00 0.00 56 1021.6
20260906172704 80 58 0.9 6.1 0.00 0.00 0.00 56 1021.6
20260906171705 78 84 0.9 4.3 0.00 0.00 0.00 59 1021.6
20260906170704 79 34 0.9 3.5 0.00 0.00 0.00 59 1022.0
20260906165706 78 34 0.9 3.5 0.00 0.00 0.00 61 1022.1
20260906164705 77 24 0.9 4.3 0.00 0.00 0.00 62 1022.2
20260906164204 77 23 0.9 4.3 0.00 0.00 0.00 63 1022.1
20260906163704 77 31 0.9 4.3 0.00 0.00 0.00 64 1022.1
20260906162704 76 346 0.9 2.6 0.00 0.00 0.00 63 1022.1
20260906162204 75 350 0.0 3.5 0.00 0.00 0.00 68 1022.2
20260906161705 74 350 0.9 3.5 0.00 0.00 0.00 66 1022.2
20260906161206 75 348 0.9 3.5 0.00 0.00 0.00 65 1022.1
20260906160710 75 350 0.9 4.3 0.00 0.00 0.00 64 1022.1
20260906160205 75 351 0.9 4.3 0.00 0.00 0.00 68 1022.1
20260906155705 74 355 0.9 4.3 0.00 0.00 0.00 68 1022.1
20260906154704 73 42 0.9 4.3 0.00 0.00 0.00 69 1022.2
20260906153705 73 36 0.9 3.5 0.00 0.00 0.00 69 1022.3
20260906153205 72 36 0.9 3.5 0.00 0.00 0.00 70 1022.3
20260906152705 72 38 0.9 4.3 0.00 0.00 0.00 71 1022.3
20260906152205 71 38 0.9 4.3 0.00 0.00 0.00 72 1022.3
20260906151704 71 41 0.9 4.3 0.00 0.00 0.00 73 1022.3
20260906151205 71 5 1.7 4.3 0.00 0.00 0.00 74 1022.3
20260906150705 70 5 1.7 4.3 0.00 0.00 0.00 75 1022.4
20260906145705 69 323 0.9 4.3 0.00 0.00 0.00 77 1022.3
20260906144704 67 323 0.9 3.5 0.00 0.00 0.00 79 1022.3
20260906144205 67 323 1.7 4.3 0.00 0.00 0.00 78 1022.4
20260906143704 67 323 1.7 5.2 0.00 0.00 0.00 78 1022.4
20260906142704 68 348 1.7 5.2 0.00 0.00 0.00 78 1022.3
20260906141704 67 321 1.7 5.2 0.00 0.00 0.00 80 1022.3
20260906141205 66 309 1.7 5.2 0.00 0.00 0.00 79 1022.3
20260906140204 65 302 0.9 5.2 0.00 0.00 0.00 80 1022.3
20260906135704 65 287 0.9 3.5 0.00 0.00 0.00 81 1022.2
20260906135204 64 348 0.9 3.5 0.00 0.00 0.00 81 1022.3
20260906134705 64 348 0.9 3.5 0.00 0.00 0.00 81 1022.2
20260906134205 63 355 0.9 3.5 0.00 0.00 0.00 81 1022.1
20260906133704 63 355 0.9 3.5 0.00 0.00 0.00 81 1022.1
20260906133205 62 355 0.9 1.7 0.00 0.00 0.00 82 1022.2
20260906132705 62 355 0.0 2.6 0.00 0.00 0.00 81 1022.2
20260906131705 62 355 0.0 3.5 0.00 0.00 0.00 81 1022.1
20260906131206 62 355 0.9 3.5 0.00 0.00 0.00 81 1022.1
20260906130707 62 355 0.9 3.5 0.00 0.00 0.00 81 1022.1
20260906130205 62 355 0.0 0.0 0.00 0.00 0.00 81 1022.0
20260906125706 61 355 0.0 0.0 0.00 0.00 0.00 81 1022.1
20260906125205 61 355 0.0 0.0 0.00 0.00 0.00 81 1022.0
20260906124706 61 355 0.0 0.0 0.00 0.00 0.00 80 1021.8
20260906124205 61 355 0.0 0.0 0.00 0.00 0.00 80 1021.7
20260906123707 61 355 0.0 0.0 0.00 0.00 0.00 80 1021.7
20260906123205 61 355 0.0 0.0 0.00 0.00 0.00 80 1021.7
20260906122705 61 355 0.0 0.0 0.00 0.00 0.00 80 1022.0
20260906122204 61 355 0.0 0.0 0.00 0.00 0.00 80 1021.8
20260906121705 61 355 0.0 0.0 0.00 0.00 0.00 79 1021.7
20260906121206 61 355 0.0 0.0 0.00 0.00 0.00 79 1021.7
20260906120705 61 355 0.0 0.0 0.00 0.00 0.00 79 1021.6
20260906120205 61 355 0.0 0.0 0.00 0.00 0.00 79 1021.7
20260906115706 61 355 0.0 0.0 0.00 0.00 0.00 79 1021.7
20260906115205 61 355 0.0 0.0 0.00 0.00 0.00 79 1021.7
20260906114706 61 355 0.0 0.0 0.00 0.00 0.00 78 1021.7
20260906114205 61 355 0.0 0.0 0.00 0.00 0.00 78 1021.7
20260906113706 61 355 0.0 0.0 0.00 0.00 0.00 78 1021.7
20260906113205 62 355 0.0 0.0 0.00 0.00 0.00 78 1021.7
20260906112705 62 355 0.0 0.0 0.00 0.00 0.00 78 1021.7
20260906112206 62 355 0.0 0.0 0.00 0.00 0.00 77 1021.7
20260906111704 62 355 0.0 0.0 0.00 0.00 0.00 77 1021.6
20260906111206 62 355 0.0 0.0 0.00 0.00 0.00 77 1021.5
20260906110705 62 355 0.0 1.7 0.00 0.00 0.00 77 1021.4
20260906110205 62 355 0.0 2.6 0.00 0.00 0.00 77 1021.5
20260906105705 62 355 0.9 2.6 0.00 0.00 0.00 77 1021.5
20260906105205 62 355 0.9 2.6 0.00 0.00 0.00 77 1021.6
20260906104704 62 355 0.0 0.0 0.00 0.00 0.00 77 1021.5
20260906104205 62 355 0.0 0.0 0.00 0.00 0.00 77 1021.5
20260906103205 63 355 0.0 0.0 0.00 0.00 0.00 77 1021.5
20260906102705 63 355 0.0 0.0 0.00 0.00 0.00 76 1021.5
20260906102205 63 355 0.0 0.0 0.00 0.00 0.00 76 1021.5
20260906101705 63 355 0.0 0.0 0.00 0.00 0.00 75 1021.4
20260906101206 63 355 0.0 0.0 0.00 0.00 0.00 75 1021.5
20260906100705 64 355 0.0 0.0 0.00 0.00 0.00 74 1021.4
20260906100205 64 355 0.0 0.0 0.00 0.00 0.00 74 1021.4
20260906095705 64 355 0.0 0.0 0.00 0.00 0.00 73 1021.4
20260906095205 64 355 0.0 0.0 0.00 0.00 0.00 72 1021.3
20260906094705 65 355 0.0 0.0 0.00 0.00 0.00 71 1021.5
20260906094204 65 355 0.0 0.0 0.00 0.00 0.00 71 1021.6
20260906093705 65 355 0.0 0.0 0.00 0.00 0.00 70 1021.5
20260906092205 66 355 0.0 0.0 0.00 0.00 0.00 67 1021.4
20260906091704 66 355 0.0 0.0 0.00 0.00 0.00 66 1021.1
20260906091205 66 355 0.0 0.0 0.00 0.00 0.00 65 1021.0
20260906090705 66 355 0.0 0.0 0.00 0.00 0.00 64 1021.0
20260906090204 66 355 0.0 0.9 0.00 0.00 0.00 64 1020.9
20260906085705 67 355 0.0 0.9 0.00 0.00 0.00 63 1020.9
20260906085205 67 355 0.0 1.7 0.00 0.00 0.00 62 1020.8
20260906084704 67 355 0.0 3.5 0.00 0.00 0.00 61 1020.9
20260906084205 67 355 0.0 3.5 0.00 0.00 0.00 61 1020.8
20260906083705 68 355 0.9 3.5 0.00 0.00 0.00 60 1020.7
20260906083206 68 355 0.9 4.3 0.00 0.00 0.00 59 1020.8
20260906082705 68 355 0.9 4.3 0.00 0.00 0.00 58 1020.7
20260906082206 69 355 1.7 4.3 0.00 0.00 0.00 57 1020.7
20260906081705 69 355 1.7 4.3 0.00 0.00 0.00 56 1020.7
20260906081205 69 5 1.7 4.3 0.00 0.00 0.00 55 1020.7
20260906080705 69 5 1.7 4.3 0.00 0.00 0.00 54 1020.8
20260906075705 68 355 0.9 4.3 0.00 0.00 0.00 54 1020.8
20260906074706 68 182 0.0 0.0 0.00 0.00 0.00 53 1020.5
20260906074205 68 182 0.0 0.0 0.00 0.00 0.00 53 1020.7
20260906073705 68 182 0.0 0.0 0.00 0.00 0.00 53 1020.7
20260906073204 68 182 0.0 0.0 0.00 0.00 0.00 52 1020.7
20260906072705 68 182 0.0 0.0 0.00 0.00 0.00 52 1020.8
20260906072205 68 182 0.0 0.0 0.00 0.00 0.00 53 1020.8
20260906071205 69 182 0.0 0.0 0.00 0.00 0.00 52 1020.7
20260906070705 69 182 0.0 0.0 0.00 0.00 0.00 53 1020.8
20260906070204 70 182 0.0 0.0 0.00 0.00 0.00 51 1020.8
20260906065705 70 182 0.0 0.0 0.00 0.00 0.00 51 1020.7
20260906065205 70 182 0.0 0.0 0.00 0.00 0.00 51 1020.8
20260906064704 71 182 0.0 0.0 0.00 0.00 0.00 50 1020.9
20260906064205 71 182 0.0 1.7 0.00 0.00 0.00 49 1020.9
20260906063704 71 182 0.0 2.6 0.00 0.00 0.00 49 1020.9
20260906063206 71 182 0.9 2.6 0.00 0.00 0.00 48 1020.8
20260906062705 72 182 0.9 2.6 0.00 0.00 0.00 47 1020.9
20260906062205 72 181 0.0 0.0 0.00 0.00 0.00 46 1020.9
20260906061204 73 181 0.0 0.0 0.00 0.00 0.00 46 1020.5
20260906060704 73 181 0.0 0.0 0.00 0.00 0.00 46 1020.5
20260906060204 73 181 0.0 0.0 0.00 0.00 0.00 45 1020.3
20260906055706 73 181 0.0 0.0 0.00 0.00 0.00 45 1020.2
20260906055205 73 181 0.0 0.0 0.00 0.00 0.00 44 1020.5
20260906054705 73 181 0.0 2.6 0.00 0.00 0.00 44 1020.8
20260906054206 72 181 0.0 2.6 0.00 0.00 0.00 44 1020.9
20260906053705 72 181 0.9 2.6 0.00 0.00 0.00 45 1021.0
20260906052705 72 181 0.9 3.5 0.00 0.00 0.00 45 1021.1
20260906052205 72 181 1.7 6.1 0.00 0.00 0.00 45 1021.1
20260906051706 72 181 2.6 6.1 0.00 0.00 0.00 45 1021.4
20260906050705 72 161 0.9 3.5 0.00 0.00 0.00 46 1021.4
20260906050204 72 283 0.0 0.0 0.00 0.00 0.00 46 1021.3
20260906045704 72 283 0.0 0.0 0.00 0.00 0.00 45 1021.0
20260906045206 72 283 0.0 0.0 0.00 0.00 0.00 45 1020.9
20260906043704 72 283 0.0 0.0 0.00 0.00 0.00 45 1020.8
20260906043204 72 283 0.0 0.0 0.00 0.00 0.00 44 1020.8
20260906042704 72 283 0.0 0.0 0.00 0.00 0.00 44 1020.8
20260906042204 72 283 0.0 0.0 0.00 0.00 0.00 46 1020.4
20260906041704 72 283 0.0 0.0 0.00 0.00 0.00 45 1020.4
20260906041205 72 283 0.0 0.0 0.00 0.00 0.00 44 1020.2
20260906040705 72 283 0.0 0.0 0.00 0.00 0.00 44 1020.2
20260906035705 73 283 0.0 0.0 0.00 0.00 0.00 43 1019.8
20260906035204 73 283 0.0 0.0 0.00 0.00 0.00 43 1019.7
20260906034705 74 283 0.0 0.0 0.00 0.00 0.00 43 1019.6
20260906034205 74 283 0.0 0.0 0.00 0.00 0.00 42 1019.7
20260906033204 74 283 0.0 0.0 0.00 0.00 0.00 41 1019.7
20260906032205 75 283 0.0 0.0 0.00 0.00 0.00 40 1019.7
20260906031704 75 283 0.0 0.0 0.00 0.00 0.00 40 1019.6
20260906031204 75 283 0.0 0.0 0.00 0.00 0.00 39 1019.5
20260906030705 75 283 0.0 0.0 0.00 0.00 0.00 40 1019.4
20260906025705 75 283 0.0 0.0 0.00 0.00 0.00 40 1019.1
20260906025205 75 283 0.0 0.0 0.00 0.00 0.00 40 1019.0
20260906024705 76 283 0.0 0.0 0.00 0.00 0.00 39 1018.9
20260906024205 76 283 0.0 0.0 0.00 0.00 0.00 39 1018.9
20260906023206 77 283 0.0 0.0 0.00 0.00 0.00 39 1018.9
20260906022206 78 283 0.0 0.0 0.00 0.00 0.00 36 1018.8
20260906021706 78 283 0.0 1.7 0.00 0.00 0.00 36 1018.8
20260906021205 79 283 0.0 2.6 0.00 0.00 0.00 35 1018.9
20260906020205 80 283 0.9 4.3 0.00 0.00 0.00 34 1018.8
20260906015704 80 283 0.9 4.3 0.00 0.00 0.00 33 1018.8
20260906014204 81 283 0.9 3.5 0.00 0.00 0.00 33 1018.7
20260906013704 81 282 0.9 2.6 0.00 0.00 0.00 32 1018.6
20260906013206 82 282 0.0 2.6 0.00 0.00 0.00 32 1018.4
20260906012705 82 282 0.9 3.5 0.00 0.00 0.00 32 1018.4
20260906011705 83 282 0.9 4.3 0.00 0.00 0.00 30 1018.6
20260906011205 84 282 1.7 5.2 0.00 0.00 0.00 30 1018.6
20260906010705 84 281 1.7 5.2 0.00 0.00 0.00 29 1018.4
20260906010205 85 281 1.7 6.1 0.00 0.00 0.00 28 1018.4
20260906005704 85 279 2.6 7.8 0.00 0.00 0.00 27 1018.3
20260906004705 87 277 2.6 8.7 0.00 0.00 0.00 27 1018.4
20260906004206 87 288 2.6 8.7 0.00 0.00 0.00 26 1018.4
20260906003705 87 293 2.6 8.7 0.00 0.00 0.00 26 1018.4
20260906002705 88 310 1.7 7.0 0.00 0.00 0.00 25 1018.4
20260906002204 88 22 1.7 9.6 0.00 0.00 0.00 25 1018.4
20260906001705 89 287 2.6 9.6 0.00 0.00 0.00 25 1018.3
20260906000705 89 274 0.9 3.5 0.00 0.00 0.00 24 1018.3
20260906000206 89 319 0.0 1.7 0.00 0.00 0.00 25 1018.2
20260905235705 89 319 0.0 2.6 0.00 0.00 0.00 25 1018.2
20260905235205 89 319 0.0 3.5 0.00 0.00 0.00 25 1018.2
20260905234705 90 319 0.0 3.5 0.00 0.00 0.00 24 1018.3
20260905233705 91 5 0.0 4.3 0.00 0.00 0.00 22 1018.2
20260905233205 92 5 0.9 6.1 0.00 0.00 0.00 23 1018.1
20260905232707 92 5 0.9 6.1 0.00 0.00 0.00 21 1018.1
20260905232205 93 0 1.7 6.1 0.00 0.00 0.00 21 1018.0
20260905231705 93 346 1.7 6.1 0.00 0.00 0.00 22 1018.1
20260905231205 93 11 0.9 4.3 0.00 0.00 0.00 20 1018.0
20260905230204 94 16 0.9 5.2 0.00 0.00 0.00 20 1017.9
20260905225706 94 355 0.9 5.2 0.00 0.00 0.00 22 1017.9
20260905225205 94 298 1.7 5.2 0.00 0.00 0.00 20 1017.9
20260905224705 94 5 1.7 5.2 0.00 0.00 0.00 20 1017.9
20260905224205 95 271 0.9 7.8 0.00 0.00 0.00 20 1017.9
20260905223705 95 28 1.7 7.8 0.00 0.00 0.00 20 1017.9
20260905223205 95 33 1.7 4.3 0.00 0.00 0.00 22 1017.9
20260905222205 93 248 0.9 4.3 0.00 0.00 0.00 21 1017.9
20260905221706 93 298 0.9 4.3 0.00 0.00 0.00 22 1018.0